LY3FF-10 Weather Reports


time (UTC)temp
F
wind
direction
speed
knots
gust
knots
rain 1hr
in
rain 24hr
in
rain mn
in
humidity
%
barometer
mb
20260906034507 55 0.0 0.0 0.00 0.00 0.00 89 986.9
20260906033200 54 0.0 0.0 0.00 0.00 0.00 89 986.9
20260906031957 54 0.0 0.0 0.00 0.00 0.00 89 986.8
20260906030625 54 0.0 0.0 0.00 0.00 0.00 89 986.7
20260906025335 54 0.0 0.0 0.00 0.00 0.00 89 986.5
20260906023835 54 0.0 0.0 0.00 0.00 0.00 89 986.4
20260906022408 54 0.0 0.0 0.00 0.00 0.00 87 986.4
20260906021005 55 0.0 0.0 0.00 0.00 0.00 86 986.3
20260906015725 55 0.0 0.0 0.00 0.00 0.00 85 986.2
20260906014440 55 0.0 0.0 0.00 0.00 0.00 85 986.2
20260906012958 55 0.0 0.0 0.00 0.00 0.00 85 986.1
20260906011614 56 0.0 0.0 0.00 0.00 0.00 85 986.2
20260906010250 56 0.0 0.0 0.00 0.00 0.00 85 986.2
20260906005035 56 0.0 0.0 0.00 0.00 0.00 85 986.1
20260906003655 56 0.0 0.0 0.00 0.00 0.00 85 986.1
20260906002200 56 0.0 0.0 0.00 0.00 0.00 85 986.1
20260906000830 56 0.0 0.0 0.00 0.00 0.00 85 986.1
20260905235537 56 0.0 0.0 0.00 0.00 0.00 85 986.0
20260905234130 56 0.0 0.0 0.00 0.00 0.00 85 986.0
20260905232650 56 0.0 0.0 0.00 0.00 0.00 85 986.0
20260905231240 56 0.0 0.0 0.00 0.00 0.00 85 986.0
20260905225850 56 0.0 0.0 0.00 0.00 0.00 85 985.9
20260905224522 56 0.0 0.0 0.00 0.00 0.00 85 986.1
20260905223240 56 0.0 0.0 0.00 0.00 0.00 85 986.0
20260905221945 56 0.0 0.0 0.00 0.00 0.00 85 985.9
20260905220705 56 0.0 0.0 0.00 0.00 0.00 85 986.0
20260905215245 56 0.0 0.0 0.00 0.00 0.00 85 985.9
20260905213930 57 0.0 0.0 0.00 0.00 0.00 84 986.0
20260905212655 57 0.0 0.0 0.00 0.00 0.00 84 986.1
20260905211205 57 0.0 0.0 0.00 0.00 0.00 84 986.1
20260905205725 57 0.0 0.0 0.00 0.00 0.00 84 986.0
20260905204245 57 0.0 0.0 0.00 0.00 0.00 84 986.0
20260905202958 57 0.0 0.0 0.00 0.00 0.00 84 986.0
20260905201655 57 0.0 0.0 0.00 0.00 0.00 85 986.0
20260905200210 57 0.0 0.0 0.00 0.00 0.00 85 986.0
20260905194915 57 0.0 0.0 0.00 0.00 0.00 85 986.0
20260905193520 57 0.0 0.0 0.00 0.00 0.00 85 986.0
20260905192225 57 0.0 0.0 0.00 0.00 0.00 85 986.0
20260905190915 57 0.0 0.0 0.00 0.00 0.00 85 985.9
20260905185605 57 0.0 0.0 0.00 0.00 0.00 85 985.8
20260905184115 58 0.0 0.0 0.00 0.00 0.00 85 985.9
20260905182655 57 0.0 0.0 0.00 0.00 0.00 85 985.9
20260905181348 57 0.0 0.0 0.00 0.00 0.00 87 985.9
20260905175910 57 0.0 0.0 0.00 0.00 0.00 85 985.8
20260905174420 58 0.0 0.0 0.00 0.00 0.00 85 985.6
20260905173201 58 0.0 0.0 0.00 0.00 0.00 85 985.5
20260905171721 58 0.0 0.0 0.00 0.00 0.00 85 985.4
20260905170415 58 0.0 0.0 0.00 0.00 0.00 84 985.3
20260905164930 58 0.0 0.0 0.00 0.00 0.00 84 985.2
20260905163640 58 0.0 0.0 0.00 0.00 0.00 84 985.1
20260905162435 58 0.0 0.0 0.00 0.00 0.00 84 985.1
20260905161220 59 0.0 0.0 0.00 0.00 0.00 84 985.0
20260905155920 59 0.0 0.0 0.00 0.00 0.00 84 984.8
20260905154600 59 0.0 0.0 0.00 0.00 0.00 84 984.7
20260905153355 59 0.0 0.0 0.00 0.00 0.00 84 984.8
20260905151954 59 0.0 0.0 0.00 0.00 0.00 84 984.4
20260905150500 60 0.0 0.0 0.00 0.00 0.00 83 984.4
20260905145054 60 0.0 0.0 0.00 0.00 0.00 81 984.3
20260905143605 60 0.0 0.0 0.00 0.00 0.00 81 984.5
20260905142240 60 0.0 0.0 0.00 0.00 0.00 81 984.4
20260905141020 60 0.0 0.0 0.00 0.00 0.00 81 984.2
20260905135715 60 0.0 0.0 0.00 0.00 0.00 80 984.1
20260905134250 63 0.0 0.0 0.00 0.00 0.00 72 983.6
20260905132850 69 0.0 0.0 0.00 0.00 0.00 69 983.2
20260905131546 65 0.0 0.0 0.00 0.00 0.00 70 983.2
20260905130050 64 0.0 0.0 0.00 0.00 0.00 73 983.0
20260905124755 62 0.0 0.0 0.00 0.00 0.00 75 982.9
20260905123340 62 0.0 0.0 0.00 0.00 0.00 75 983.0
20260905121840 63 0.0 0.0 0.00 0.00 0.00 74 982.9
20260905120525 63 0.0 0.0 0.00 0.00 0.00 72 982.7
20260905115325 67 0.0 0.0 0.00 0.00 0.00 73 982.8
20260905113940 65 0.0 0.0 0.00 0.00 0.00 67 982.5
20260905112625 64 0.0 0.0 0.00 0.00 0.00 73 982.6
20260905111350 63 0.0 0.0 0.00 0.00 0.00 77 982.4
20260905110025 62 0.0 0.0 0.00 0.00 0.00 80 982.6
20260905104613 69 0.0 0.0 0.00 0.00 0.00 97 982.5
20260905103350 69 0.0 0.0 0.00 0.00 0.00 97 982.2
20260905102135 74 0.0 0.0 0.00 0.00 0.00 97 981.8
20260905100715 62 0.0 0.0 0.00 0.00 0.00 97 981.6
20260905095325 62 0.0 0.0 0.00 0.00 0.00 97 981.5
20260905094100 62 0.0 0.0 0.00 0.00 0.00 97 981.4
20260905092600 62 0.0 0.0 0.00 0.00 0.00 97 981.2
20260905091320 62 0.0 0.0 0.00 0.00 0.00 97 981.2
20260905085830 62 0.0 0.0 0.00 0.00 0.00 97 981.1
20260905084520 62 0.0 0.0 0.00 0.00 0.00 97 980.9
20260905083320 62 0.0 0.0 0.00 0.00 0.00 97 980.6
20260905082035 62 0.0 0.0 0.00 0.00 0.00 97 980.4
20260905080715 62 0.0 0.0 0.00 0.00 0.00 97 980.0
20260905075320 62 0.0 0.0 0.00 0.00 0.00 97 980.0
20260905073910 62 0.0 0.0 0.00 0.00 0.00 97 979.7
20260905072610 62 0.0 0.0 0.00 0.00 0.00 97 979.7
20260905071340 62 0.0 0.0 0.00 0.00 0.00 97 979.3
20260905065855 62 0.0 0.0 0.00 0.00 0.00 97 979.3
20260905064525 62 0.0 0.0 0.00 0.00 0.00 97 979.1
20260905063200 62 0.0 0.0 0.00 0.00 0.00 97 978.9
20260905061705 62 0.0 0.0 0.00 0.00 0.00 97 979.0
20260905060342 62 0.0 0.0 0.00 0.00 0.00 97 978.6
20260905055030 62 0.0 0.0 0.00 0.00 0.00 97 978.7
20260905053755 62 0.0 0.0 0.00 0.00 0.00 97 978.7
20260905052405 62 0.0 0.0 0.00 0.00 0.00 97 978.4
20260905051010 62 0.0 0.0 0.00 0.00 0.00 97 978.3
20260905045525 62 0.0 0.0 0.00 0.00 0.00 97 978.5
20260905044040 62 0.0 0.0 0.00 0.00 0.00 97 978.4
20260905042840 62 0.0 0.0 0.00 0.00 0.00 97 978.4
20260905041522 62 0.0 0.0 0.00 0.00 0.00 97 978.5
20260905040305 62 0.0 0.0 0.00 0.00 0.00 97 978.5